sat.trackr.live / text

‹ back to catalog

PIESAT A

NORAD 56153 · 2023-047A

PAYLOAD ACTIVE UNKNOWN

§ Identity

Operator
Country
PRC
Launch date
2023-03-30
Launch site
TAISC
Launch vehicle
Mass (kg)
RCS (m²)

External: N2YO · Heavens-Above · Gunter

§ Orbital elements

Epoch: 2026-09-21T13:32:55.015296Z

Period
95.09 min
Inclination
97.5018°
Eccentricity
0.0001629
Mean motion
15.14292163 rev/d
Perigee alt
522.0 km
Apogee alt
524.3 km
Semi-major
6,901.3 km
B*
1.1888e-4
RAAN
90.3246°
Arg perigee
85.8218°
Mean anomaly
274.3200°
Rev number
19,238

§ Raw data

PIESAT A1 56153U 23047A   26264.56452564  .00002110  00000+0  11888-3 0  99952 56153  97.5018  90.3246 0001629  85.8218 274.3200 15.14292163192381

JSON: /api/v1/satellites/56153 · /tle

For live sub-satellite position, see the globe view (requires WebGL).

§ Visibility from observer

Set your observer location to see the next 7 days of passes ≥ 10°. The values pass through the URL so the page stays shareable.

No JS? Fill the form by hand. The geolocation button needs JavaScript.